CST,Max TemperatureF,Mean TemperatureF,Min TemperatureF,Max Dew PointF,MeanDew PointF,Min DewpointF,Max Humidity, Mean Humidity, Min Humidity, Max Sea Level PressureIn, Mean Sea Level PressureIn, Min Sea Level PressureIn, Max VisibilityMiles, Mean VisibilityMiles, Min VisibilityMiles, Max Wind SpeedMPH, Mean Wind SpeedMPH, Max Gust SpeedMPH,PrecipitationIn, CloudCover, Events, WindDirDegrees
2012-12-1,,,,,,,,,,,,,,,,,,,,,,
2012-12-2,,,,,,,,,,,,,,,,,,,,,,
2012-12-3,,,,,,,,,,,,,,,,,,,,,,
2012-12-4,,,,,,,,,,,,,,,,,,,,,,
2012-12-5,59,47,35,34,31,28,81,56,34,30.36,30.25,30.10,10,10,10,9,4,,0.00,0,,141
2012-12-6,57,46,35,43,37,30,93,72,59,30.09,29.96,29.88,10,10,10,10,6,,0.00,0,,122
2012-12-7,55,48,42,46,44,41,100,82,67,29.91,29.86,29.82,10,9,3,7,4,,0.00,7,Rain,275
2012-12-8,46,44,41,45,41,37,100,96,87,29.99,29.93,29.87,5,3,0,12,4,,0.00,8,Fog-Rain,30
2012-12-9,46,37,28,46,39,18,100,91,64,30.00,29.87,29.80,10,5,0,17,6,24,0.03,7,Fog-Rain,306
2012-12-10,32,26,19,19,18,14,93,72,60,30.07,30.02,29.96,10,10,10,15,10,24,0.00,4,,277
2012-12-11,42,30,19,19,17,14,93,58,31,30.20,30.10,30.05,10,10,10,12,5,,0.00,0,,212
2012-12-12,50,38,26,19,15,12,74,43,22,30.29,30.23,30.20,10,10,10,14,6,18,0.00,0,,166
2012-12-13,59,47,35,23,20,16,52,40,23,30.24,30.20,30.13,10,10,10,15,11,23,0.00,0,,160
2012-12-14,53,42,32,39,27,23,87,55,35,30.18,30.07,29.85,10,10,7,18,7,28,0.05,3,Rain-Thunderstorm,131
2012-12-15,60,51,42,46,41,37,100,68,42,29.80,29.69,29.63,10,10,10,26,15,34,0.04,3,Rain,191
2012-12-16,57,47,37,41,38,34,100,78,47,29.75,29.71,29.63,10,8,0,9,4,,0.00,2,Fog,326
2012-12-17,41,36,32,41,37,32,100,99,81,29.79,29.74,29.70,10,4,1,13,5,16,0.00,6,Rain,260
2012-12-18,57,44,32,36,32,32,100,62,38,29.91,29.77,29.71,10,9,2,18,7,25,0.00,0,,209
2012-12-19,59,45,33,57,39,32,100,84,62,29.91,29.75,29.43,10,9,1,22,8,31,0.00,4,Rain-Thunderstorm,85
2012-12-20,57,42,26,55,30,18,100,81,62,30.17,29.75,29.29,10,8,1,31,20,48,0.01,5,Rain-Snow,251
2012-12-21,41,32,23,18,12,7,74,49,26,30.34,30.28,30.17,10,10,10,14,9,18,0.00,0,,268
2012-12-22,60,42,23,21,17,12,74,40,15,30.26,30.09,29.96,10,10,10,15,7,21,0.00,0,,163
2012-12-23,57,45,33,37,31,21,87,58,37,29.95,29.89,29.83,10,10,10,9,5,,0.00,1,,270
2012-12-24,33,27,21,30,23,18,100,83,64,30.11,30.00,29.86,10,7,4,12,7,17,0.00,3,,309
2012-12-25,30,26,21,23,19,14,86,77,69,30.20,30.10,30.05,10,9,5,18,9,26,0.00,7,,12
2012-12-26,32,26,21,19,18,16,86,73,60,30.19,30.11,30.04,10,10,10,17,11,25,0.00,7,,322
2012-12-27,35,27,19,25,22,18,100,77,60,30.16,30.06,29.96,10,10,10,16,5,23,0.00,1,,114
2012-12-28,35,32,28,30,26,21,93,78,65,30.00,29.95,29.89,10,10,7,14,7,20,0.00,8,,238
2012-12-29,32,28,23,21,17,14,80,65,48,30.33,30.20,30.00,10,9,7,17,11,24,0.00,4,Snow,262
2012-12-30,44,36,28,21,17,12,64,47,27,30.40,30.30,30.19,10,10,10,17,9,21,0.00,0,,185
2012-12-31,37,34,32,34,29,16,100,88,41,30.22,30.11,30.04,10,4,0,14,5,22,0.20,8,Fog-Rain-Snow,157